Wilmington, OH

9:19 AM EST on November 23, 2017 (GMT -0500)
Airborne

Weather History for KILN - December, 2013

Change the Weather History Date:

Tuesday, December 17, 2013

  Actual Average (KFFO) Record (KFFO)
Temperature  
Mean Temperature 30 °F -  
Max Temperature 34 °F 37 °F 62 °F (2006)
Min Temperature 27 °F 22 °F 8 °F (2000)
Degree Days  
Heating Degree Days 34    
Moisture  
Dew Point 26 °F    
Average Humidity 87    
Maximum Humidity 100    
Minimum Humidity 79    
Precipitation  
Precipitation 0.00 in - - ()
Sea Level Pressure  
Sea Level Pressure 30.08 in    
Wind  
Wind Speed 10 mph (West)    
Max Wind Speed 20 mph    
Max Gust Speed 26 mph    
Visibility 6 miles    
Events Snow    
Averages and records for this station are not official NWS values.
T = Trace of Precipitation, MM = Missing Value Source: NWS Daily Summary

Daily Weather History Graph

Daily Weather History Graph

Search for Another Location

Airport or City:

Trip Planner

Search our weather history database for the weather conditions in past years. The results will help you decide how hot, cold, wet, or windy it might be!

Date:

Astronomy

Dec. 17, 2013 Rise Set
Actual Time 7:49 AM EST 5:13 PM EST
Civil Twilight 7:19 AM EST 5:43 PM EST
Nautical Twilight 6:45 AM EST 6:17 PM EST
Astronomical Twilight 6:12 AM EST 6:50 PM EST
Moon 5:52 PM EST (12/17) 7:45 AM EST (12/17)
Length of Visible Light 10h 24m
Length of Day
9h 23m
Full, 100% of the Moon is Illuminated
Dec 17
Full
Dec 25
Last Quarter
Jan 1
New
Jan 7
First Quarter
Jan 15
Full

Hourly Weather History & Observations

Time (EST) Temp. Windchill Dew Point Humidity Pressure Visibility Wind Dir Wind Speed Gust Speed Precip Events Conditions
12:54 AM 30.0 °F 22.4 °F 28.0 °F 92% 30.04 in 6.0 mi SW 8.1 mph - N/A   Clear
1:54 AM 33.1 °F 26.1 °F 30.0 °F 89% 30.04 in 7.0 mi SW 8.1 mph - N/A   Clear
2:54 AM 34.0 °F 26.6 °F 30.9 °F 89% 30.06 in 7.0 mi West 9.2 mph - N/A   Scattered Clouds
3:05 AM 33.8 °F 25.8 °F 30.2 °F 87% 29.98 in 7.0 mi West 10.4 mph - N/A   Mostly Cloudy
3:29 AM 33.8 °F 25.3 °F 30.2 °F 87% 29.98 in 7.0 mi WNW 11.5 mph - N/A   Overcast
3:54 AM 32.0 °F 21.2 °F 30.0 °F 92% 30.06 in 5.0 mi WNW 16.1 mph - N/A   Overcast
4:54 AM 30.9 °F 21.2 °F 28.9 °F 92% 30.06 in 4.0 mi WNW 12.7 mph - N/A   Overcast
5:43 AM 30.2 °F 22.6 °F 28.4 °F 93% 29.98 in 2.5 mi WNW 8.1 mph - N/A   Overcast
5:52 AM 28.4 °F 20.4 °F 28.4 °F 100% 29.98 in 3.0 mi WNW 8.1 mph - N/A   Overcast
5:54 AM 28.9 °F 21.1 °F 28.0 °F 96% 30.07 in 3.0 mi WNW 8.1 mph - N/A   Overcast
6:54 AM 28.9 °F 20.4 °F 27.0 °F 92% 30.11 in 3.0 mi WNW 9.2 mph - N/A   Overcast
7:08 AM 28.4 °F 18.0 °F 26.6 °F 93% 30.03 in 2.5 mi NNW 12.7 mph - N/A   Overcast
7:28 AM 28.4 °F 19.7 °F 26.6 °F 93% 30.04 in 3.0 mi NW 9.2 mph - N/A   Overcast
7:54 AM 27.0 °F 19.5 °F 26.1 °F 96% 30.12 in 5.0 mi WNW 6.9 mph - N/A   Overcast
8:54 AM 28.0 °F 21.7 °F 25.0 °F 88% 30.13 in 5.0 mi WSW 5.8 mph - N/A   Overcast
9:54 AM 28.0 °F 19.3 °F 24.1 °F 85% 30.14 in 7.0 mi WSW 9.2 mph - N/A   Overcast
10:14 AM 28.4 °F 19.1 °F 24.8 °F 86% 30.06 in 7.0 mi WSW 10.4 mph - N/A   Overcast
10:54 AM 27.0 °F 17.3 °F 23.0 °F 85% 30.16 in 7.0 mi WNW 10.4 mph - N/A   Overcast
11:54 AM 27.0 °F 17.3 °F 23.0 °F 85% 30.13 in 7.0 mi West 10.4 mph - N/A   Overcast
12:54 PM 28.0 °F 20.0 °F 23.0 °F 81% 30.09 in 8.0 mi West 8.1 mph - N/A   Overcast
1:41 PM 30.2 °F 21.9 °F 24.8 °F 80% 29.97 in 8.0 mi West 9.2 mph - N/A   Partly Cloudy
1:54 PM 30.0 °F 23.2 °F 24.1 °F 79% 30.04 in 8.0 mi WSW 6.9 mph - N/A   Clear
2:54 PM 28.9 °F 19.2 °F 24.1 °F 82% 30.05 in 8.0 mi West 11.5 mph - N/A   Overcast
3:21 PM 28.4 °F 18.0 °F 24.8 °F 86% 29.99 in 8.0 mi WNW 12.7 mph - N/A   Overcast
3:54 PM 28.0 °F 17.0 °F 23.0 °F 81% 30.09 in 8.0 mi West 13.8 mph - N/A   Mostly Cloudy
4:10 PM 28.4 °F 18.5 °F 23.0 °F 80% 30.00 in 8.0 mi West 11.5 mph - N/A   Overcast
4:54 PM 28.0 °F 19.3 °F 23.0 °F 81% 30.09 in 8.0 mi WSW 9.2 mph - N/A   Mostly Cloudy
5:54 PM 28.9 °F 19.8 °F 24.1 °F 82% 30.11 in 5.0 mi WSW 10.4 mph - 0.00 in Snow Light Snow
6:04 PM 28.4 °F 19.1 °F 24.8 °F 86% 30.03 in 1.8 mi WSW 10.4 mph - 0.00 in Snow Light Snow
6:16 PM 28.4 °F 19.1 °F 24.8 °F 86% 30.03 in 2.5 mi WSW 10.4 mph - 0.00 in Snow Light Snow
6:40 PM 28.4 °F 19.1 °F 24.8 °F 86% 30.05 in 4.0 mi West 10.4 mph - 0.00 in Snow Light Snow
6:54 PM 28.9 °F 19.8 °F 25.0 °F 85% 30.13 in 8.0 mi West 10.4 mph - 0.00 in   Overcast
7:54 PM 28.9 °F 17.7 °F 24.1 °F 82% 30.15 in 10.0 mi West 15.0 mph 26.5 mph N/A   Overcast
8:54 PM 28.0 °F 14.9 °F 23.0 °F 81% 30.18 in 10.0 mi West 19.6 mph 24.2 mph N/A   Overcast
9:54 PM 28.0 °F 18.6 °F 23.0 °F 81% 30.20 in 9.0 mi West 10.4 mph - N/A   Overcast
10:54 PM 28.0 °F 18.6 °F 24.1 °F 85% 30.22 in 8.0 mi WSW 10.4 mph - N/A   Overcast
11:54 PM 28.0 °F 18.1 °F 23.0 °F 81% 30.22 in 9.0 mi West 11.5 mph - N/A   Mostly Cloudy